Lid_Strength_Index
1 -0 -1 -2 -1 -1 -1 -1 -1 -2 -2 -2 -2 -2 -2 -2 -2 -2 -2 -2 -2 -2 -2 -2 -2 -2 -2 -2 -2 -2 -2 -2 -2 -2 -2 -2 -2 -2 -2 -2 -3 -1 -2
-0 -1 -1 -2 -2 -1 -1 -1 -1 -2 -2 -2 -2 -2 -2 -2 -2 -2 -2 -2 -3 -2 -2 -2 -2 -2 -2 -2 -2 -2 -2 -2 -2 -2 -3 -2 -2 -2 -2 -2 -2 -1 -2
-0 -1 -1 -2 -2 -2 -1 -2 -2 -2 -2 -2 -2 -2 -2 -2 -2 -2 -2 -2 -2 -2 -2 -2 -2 -2 -2 -2 -2 -2 -2 -2 -3 -3 -3 -0 -0 -2 -2 -2 -2 -2 -2
-0 -1 -1 -1 -2 -2 -2 -2 -2 -2 -2 -2 -2 -2 -2 -2 -2 -2 -2 -2 -3 -2 -2 -2 -2 -2 -2 -2 -2 -2 -2 -2 -3 -3 -1 -1 -1 -2 -2 -2 -2 -2 -2
-0 -1 -1 -1 -2 -2 -2 -2 -2 -2 -2 -2 -2 -2 -2 -2 -2 -2 -2 -2 -2 -2 -2 -2 -2 -2 -2 -2 -2 -2 -2 -2 -3 -1 -0 -0 0 -2 -2 -2 -2 -2 -2
-0 -1 -1 -2 -2 -2 -2 -2 -2 -2 -2 -2 -3 -2 -2 -2 -2 -2 -2 -2 -2 -2 -2 -2 -2 -2 -2 -2 -2 -2 -2 -2 -2 0 0 -1 -0 -2 -2 -2 -2 -2 -2
-0 -1 -1 -1 -2 -2 -2 -2 -2 -3 -2 -3 -2 -2 -2 -2 -2 -2 -2 -2 -2 -2 -2 -2 -2 -2 -2 -2 -2 -2 -2 -3 0 0 -0 0 -0 -2 -2 -2 -2 -2 -2
0 -0 -1 0 -1 -1 -2 -2 -2 -3 -3 -3 -2 -2 -2 -2 -2 -2 -2 -2 -2 -2 -2 -2 -2 -2 -2 -2 -2 -2 -2 -2 -0 1 0 -0 -2 -2 -2 -2 -2 -2 -2
-0 -0 -0 -0 -0 -0 -1 -1 -2 -2 -2 -2 -2 -2 -2 -2 -2 -2 -2 -2 -2 -2 -2 -2 -2 -2 -2 -2 -2 -1 -1 -1 1 0 -0 -0 -2 -2 -2 -2 -2 -2 -2
0 -0 -0 -0 -0 -1 -1 -0 -1 -1 -1 -2 -2 -1 -1 -1 -2 -2 -1 -2 -2 -2 -2 -2 -2 -2 -2 -2 -1 -1 -1 -1 1 0 1 -0 -2 -2 -2 -2 -2 -2 -2
1 0 -0 -0 -0 -0 -1 1 0 0 -0 -0 -1 -0 -0 -1 -1 -1 -1 -1 -2 -2 -2 -2 -1 -1 -2 -1 -1 -1 -1 0 1 1 1 -1 -2 -2 -2 -2 -2 -2 -2
3 1 -0 -0 -0 -0 -1 -0 -0 -0 -0 -0 -0 -0 -1 0 0 -1 0 -1 -2 -2 -2 -2 -1 -1 -0 1 1 -0 0 1 1 1 1 -1 -2 -2 -2 -2 -2 -2 -2
2 1 0 0 -0 1 0 0 1 0 0 -0 0 0 0 0 0 0 1 1 1 1 0 -0 0 0 0 0 0 1 1 1 1 1 1 -1 -2 -2 -2 -1 -1 -1 -1
2 1 0 0 0 1 1 1 1 2 1 1 0 0 1 1 1 1 1 1 1 0 1 1 1 1 1 0 0 1 1 1 1 2 2 0 -1 0 0 0 -0 -0 -0
3 1 1 1 0 2 1 1 2 2 1 1 1 0 0 1 1 1 1 1 1 1 1 1 1 1 1 1 0 1 1 1 1 1 2 2 1 2 1 0 -0 -1 -1
2 2 1 0 0 1 1 2 2 2 1 1 0 0 0 0 1 1 1 1 1 1 1 1 1 1 1 1 1 1 1 1 1 1 2 2 2 2 2 1 0 -0 -0
2 2 1 1 0 0 1 2 2 1 0 1 0 0 0 0 0 1 1 1 1 1 1 1 1 1 1 0 1 1 -0 1 1 2 2 2 4 3 3 2 1 1 2
2 2 1 0 0 0 1 1 2 1 1 0 0 0 0 -0 0 1 1 1 1 1 1 1 1 1 1 1 1 1 1 1 2 3 5 6 8 6 3 3 3 3 3
3 1 1 1 0 0 1 1 1 1 1 1 0 0 0 -0 0 1 1 0 0 1 1 1 2 1 2 1 1 2 1 2 3 4 6 8 8 7 7 3 4 5 5
4 1 1 1 1 1 1 1 1 1 1 0 1 0 0 0 0 1 1 1 1 1 1 1 1 1 1 1 1 1 2 3 4 5 7 9 8 8 8 7 7 7 6
4 3 1 1 1 1 1 1 2 2 1 1 0 0 0 0 0 1 1 0 1 1 1 1 1 1 1 0 2 2 3 2 4 5 7 10 9 9 8 8 9 10 9
3 4 2 1 1 1 1 1 1 1 1 1 1 0 0 1 1 1 1 1 1 1 1 1 1 1 1 1 3 4 5 4 5 6 8 10 10 9 8 9 10 10 11
3 4 2 1 1 1 1 1 1 2 2 2 1 0 0 0 1 1 1 1 1 0 0 1 1 1 2 1 2 4 6 7 7 7 9 11 11 11 9 9 10 10 11
2 2 2 1 1 1 1 1 2 2 3 1 1 1 0 0 1 1 1 1 0 0 0 1 1 1 1 2 2 3 4 6 10 10 10 12 11 10 10 9 11 11 11
2 2 1 1 1 1 1 1 1 2 1 1 1 1 1 1 1 0 0 1 1 1 0 1 1 1 1 2 2 4 5 8 8 11 13 12 12 11 10 10 11 12 11
2 2 2 2 1 1 1 1 1 2 2 2 2 2 1 1 1 0 0 1 1 1 1 2 2 2 2 2 3 4 6 9 9 12 13 13 13 12 10 10 12 12 12